Skip Page Navigation
NASA JPL Caltech
NASA Logo - Jet Propulsion Laboratory + View the NASA Portal
+ Center for Near-Earth Object Studies
JPL Home Earth Solar System Stars & Galaxies Technology
JPL Solar System Dynamics
BODIES ORBITS EPHEMERIDES TOOLS PHYSICAL DATA DISCOVERY FAQ SITE MAP
IMPORTANT: The SSD Announcement email list is now available. Major changes are coming in the near future, including possible hostname and/or URL changes. To be notified of such changes, subscribe to this email list.

Please visit this page for more details.


JPL Small-Body Database Browser
Search: [ help ]  
423974 (2006 UP330)
Classification: Main-belt Asteroid          SPK-ID: 2423974
Ephemeris | Orbit Diagram | Orbital Elements | Mission Design | Physical Parameters | Discovery Circumstances | Close-Approach Data ]

[ show orbit diagram ]
Orbital Elements at Epoch 2459000.5 (2020-May-31.0) TDB
Reference: JPL 8 (heliocentric ecliptic J2000)
 Element Value Uncertainty (1-sigma)   Units 
e .130319881223892 9.6333e-08  
a 3.119584066916238 6.9928e-08 au
q 2.713040241847768 2.754e-07 au
i 16.05184451214897 1.2976e-05 deg
node 177.0018686353086 2.5541e-05 deg
peri 149.6832328212532 5.5504e-05 deg
M 221.5657947728189 5.4522e-05 deg
tp 2459774.399165063000
(2022-Jul-13.89916506)
0.00032321 TDB
period 2012.535117064965
5.51
6.7669e-05
1.853e-07
d
yr
n .178878866235644 6.0145e-09 deg/d
Q 3.526127891984708 7.9041e-08 au
  Orbit Determination Parameters
   # obs. used (total)      101  
   data-arc span      4058 days (11.11 yr)  
   first obs. used      2006-10-16  
   last obs. used      2017-11-25  
   planetary ephem.      DE431  
   SB-pert. ephem.      SB431-N16  
   condition code      0  
   norm. resid. RMS      .54672  
   source      ORB  
   producer      Otto Matic  
   solution date      2017-Dec-07 18:45:30  

Additional Information
 Earth MOID = 1.71526 au 
 Jupiter MOID = 1.95687 au 
 T_jup = 3.143 
[ show covariance matrix ]

Ephemeris | Orbit Diagram | Orbital Elements | Mission Design | Physical Parameters | Discovery Circumstances | Close-Approach Data ]

Physical Parameter Table
Parameter Symbol Value Units Sigma Reference Notes
absolute magnitude H 16.1   n/a MPO427997  

423974 (2006 UP330)          Discovered 2006-Oct-16 by Becker, A. C. at Apache Point
Reference: Last Updated: 2015-02-04

[ show close-approach data ]
Ephemeris | Orbit Diagram | Orbital Elements | Mission Design | Physical Parameters | Discovery Circumstances | Close-Approach Data ]
ABOUT SSD CREDITS/AWARDS PRIVACY/COPYRIGHT GLOSSARY LINKS
FirstGov 2020-Feb-21 07:11 UT
(server date/time)  
NASA Home Page
Site Manager:   Ryan S. Park
Webmaster  Alan B. Chamberlin